Flag for U.S.A. Weather past 2 weeks in Osage City, Kansas, U.S.A.

Now
72 °F

Fog.


Feels Like: 70 °F
Forecast: 67 / 89 °F
Wind: No wind

Location: Forbes Field

Current Time: Aug 30, 2015 at 10:30:17 PM

Latest Report: Aug 30, 2015 at 9:53 PM


Visibility: 6 mi

Pressure: 29.95 "Hg

Humidity: 87%

Dew point: 68 °F

Location of Osage CityLocation

Historic Weather in Osage City — Graph

°F

Osage City temperature yesterday

Maximum temperature yesterday: 76 °F (at 2:53 PM)
Minimum temperature yesterday: 63 °F (at 6:53 AM)
Average temperature yesterday: 70 °F

Past Weeks' High & Low Weather Summary

 TemperatureHumidityPressure
High90 °F (Aug 16, 2:53 PM)97% (Aug 30, 7:53 AM)30.20 "Hg (Aug 30, 7:53 AM)
Low52 °F (Aug 24, 5:53 AM)33% (Aug 24, 4:53 PM)29.66 "Hg (Aug 18, 5:53 PM)
Average72 °F70%29.98 "Hg
* Reported Aug 15 8:53 PM — Aug 30 8:53 PM, Osage City, Weather by CustomWeather, © 2015

Note: Actual official high and low records may vary slightly from our data, if they occured in-between our weather recording intervals... More about our weather records

Advertising

Osage City weather history for previous 24 hours

 ConditionsComfort  
Time TempWeatherWind HumidityBarometerVisibility
8:53 PM
Sun, Aug 30
73 °FSunny.No wind90%29.94 "Hg8 mi
7:53 PM77 °FSunny.No wind79%29.93 "Hg8 mi
6:53 PM81 °FSunny.No wind67%29.93 "Hg8 mi
5:53 PM84 °FPassing clouds.6 mph59%29.94 "Hg10 mi
4:53 PM82 °FScattered clouds.No wind63%29.96 "Hg9 mi
3:53 PM84 °FScattered clouds.No wind59%29.97 "Hg9 mi
2:53 PM80 °FPartly sunny.No wind67%30.00 "Hg7 mi
1:53 PM78 °FOvercast.3 mph71%30.01 "Hg6 mi
1:03 PM75 °FOvercast.No wind79%30.05 "Hg5 mi
12:53 PM75 °FMostly cloudy.No wind79%30.03 "Hg5 mi
11:53 AM73 °FLow clouds.3 mph84%30.06 "Hg4 mi
10:53 AM70 °FFog.No wind90%30.06 "Hg3 mi
9:53 AM69 °FFog.3 mph90%30.04 "Hg1 mi
8:53 AM67 °FFog.3 mph93%30.03 "Hg0 mi
7:53 AM65 °FFog.No wind97%30.01 "Hg0 mi
6:53 AM64 °FFog.5 mph94%30.00 "Hg0 mi
5:56 AM62 °FFog.No wind90%30.02 "Hg2 mi
5:03 AM62 °FFog.No wind93%30.01 "Hg1 mi
3:53 AM62 °FFog.3 mph93%30.00 "Hg2 mi
2:53 AM63 °FFog.No wind93%30.00 "Hg5 mi
1:53 AM66 °FClear.No wind90%30.02 "Hg9 mi
12:53 AM67 °FClear.5 mph87%30.03 "Hg10 mi
11:53 PM
Sat, Aug 29
69 °FOvercast.3 mph87%30.03 "Hg10 mi
11:00 PM68 °FPassing clouds.5 mph87%30.06 "Hg10 mi
Weather by CustomWeather, © 2015

See weather overviewHow to use our weather pages